Weather Roundup
Issued by NWS

Home | Current Version | Previous Version | Graphics & Text | Print | Product List | Glossary Off
Versions: 1 2 3 4 5 6 7 8 9 10 11 12 13 14 15 16 17 18 19 20 21 22 23 24 25 26 27 28 29 30 31 32 33 34 35 36 37 38 39 40 41 42 43 44 45 46 47 48 49 50

000
NZUS93 KARX 021959
HRRWXR

CURRENT HOURLY OBSERVATIONS ACROSS
MUCH OF THE UPPER MISSISSIPPI VALLEY
NATIONAL WEATHER SERVICE LA CROSSE WI
300 PM CDT TUE SEP 02 2014


...SOUTHEAST MINNESOTA...


CITY           SKY/WX    TMP DP  RH WIND       PRES   REMARKS
ROCHESTER      MOSUNNY   74  58  57 W9        29.94R
ROCHESTER/MAYO CLOUDY    76  53  45 W12G17    29.92S
WINONA         MOSUNNY   77  55  47 W9        29.90S
AUSTIN         SUNNY     75  55  50 W10G17    29.94R
ALBERT LEA     SUNNY     75  57  53 SW8       29.94S
DODGE CENTER   SUNNY     75  59  57 W12       29.93S
PRESTON        MOSUNNY   74  62  65 CALM      29.94S
OWATONNA       MOSUNNY   75  57  53 W8        29.93S
FARIBAULT      MOSUNNY   81  52  36 SW8       29.92S
$$

...ELSEWHERE IN MINNESOTA...


CITY           SKY/WX    TMP DP  RH WIND       PRES   REMARKS
MINNEAPOLIS    MOSUNNY   77  48  35 W13G20    29.89S
INTNL FALLS    MOSUNNY   72  50  45 W9        29.76S
DULUTH         MOSUNNY   76  49  38 W16G23    29.82S
RED WING       SUNNY     81  50  34 W9        29.88S
REDWOOD FALLS  MOSUNNY   78  53  41 SW12      29.89F
MANKATO        MOSUNNY   75  55  50 SW9       29.91F
WORTHINGTON    MOSUNNY   73  55  53 SW10G17   29.96S
FAIRMONT       MOSUNNY   73  54  49 W12       29.94S
$$

...SOUTHWEST WISCONSIN...


CITY           SKY/WX    TMP DP  RH WIND       PRES   REMARKS
LA CROSSE      PTSUNNY   80  57  45 W10       29.90S
PRAIRIE DU CHI MOSUNNY   78  52  39 SW8       29.92S
BOSCOBEL       SUNNY     81  56  42 VRB7      29.92R
LONE ROCK      NOT AVBL
PLATTEVILLE    MOSUNNY   76  58  54 W14       29.94S
FORT MC COY    MOSUNNY   77  54  45 W9        29.91S
VIROQUA        FAIR      76  56  50 W10       29.93S
WIS DELLS      MOSUNNY   78  50  36 W8        29.91S
$$

...ELSEWHERE IN WISCONSIN...


CITY           SKY/WX    TMP DP  RH WIND       PRES   REMARKS
MILWAUKEE      PTSUNNY   78  58  49 SW9       29.90S
MADISON        MOSUNNY   77  57  50 NW8       29.91S
GREEN BAY      MOSUNNY   76  60  57 W15       29.87S
EAU CLAIRE     NOT AVBL
BLACK RVR FLS  MOCLDY    75  56  52 W7        29.90S
MEDFORD        MOSUNNY   73  54  52 W10       29.90S
WAUSAU         SUNNY     75  54  47 W14       29.87F
WIS RAPIDS     MOSUNNY   77  57  50 W10       29.91S
MARSHFIELD     PTSUNNY   73  57  57 W10       29.89S
RICE LAKE      SUNNY     74  50  43 W6        29.90S
$$

...NORTHEAST IOWA...


CITY           SKY/WX    TMP DP  RH WIND       PRES   REMARKS
WATERLOO       SUNNY     78  57  48 W13G18    29.94S
DUBUQUE        SUNNY     76  58  53 W10       29.95R
DECORAH        SUNNY     75  55  50 W7        29.93S
MASON CITY     MOSUNNY   77  56  48 W14       29.96S
CHARLES CITY   MOSUNNY   75  59  57 W12       29.96R
OELWEIN        SUNNY     75  59  57 W10       29.96S
$$

...ELSEWHERE IN IOWA...


CITY           SKY/WX    TMP DP  RH WIND       PRES   REMARKS
DES MOINES     MOSUNNY   79  57  46 W10       29.96F
IOWA CITY      MOSUNNY   78  61  55 W16       29.95S
FORT DODGE     MOSUNNY   77  59  53 SW10      29.98S
MARSHALLTOWN   SUNNY     77  58  51 W6        29.96S
CEDAR RAPIDS   MOSUNNY   76  60  57 NW9       29.94S
$$

...NORTHERN ILLINOIS...


CITY           SKY/WX    TMP DP  RH WIND       PRES   REMARKS
CHICAGO-OHARE  PTSUNNY   82  55  39 NW13      29.90S
DUPAGE         MOSUNNY   81  58  45 W12G18    29.92R
CHICAGO-MIDWAY MOSUNNY   84  56  38 W14G21    29.90S
MOLINE         MOSUNNY   82  61  48 W8G18     29.93F
ROCKFORD       MOSUNNY   80  60  50 W10       29.93F
STERLING       MOSUNNY   82  63  51 NW10      29.94S
PEORIA         MOSUNNY   84  63  49 W12       29.95S
$$

NOTE: "FAIR" INDICATES FEW OR NO CLOUDS BELOW 12,000 FEET WITH NO
SIGNIFICANT WEATHER AND/OR OBSTRUCTIONS TO VISIBILITY. WIND
SPEEDS ARE IN MILES-PER-HOUR.



USA.gov is the U.S. government's official web portal to all federal, state and local government web resources and services.